Find Kosmos-2558

NORAD ID: 53323 Int'l Des: 2022-089 Owner: TSVS Country: RU operational
LEOCIRCULARRETROGRADESSO

Aktuelle Ansicht

3D-Globus wird geladen...

Über Kosmos-2558

Beschreibung wird geladen...

Nächste Überflüge

Passes for default location (London). Set your location on the main map for personalized predictions.

Höhenverlauf

Loading altitude history...

Zweizeiliger Elementsatz

1 53323U 22089A 26151.54776410 .00112697 00000-0 86472-3 0 9992
2 53323 97.2262 254.9767 0001336 150.6332 209.5007 15.71734373215214
Epoch: 31. Mai 2026 • Age: 7 hours

Aktueller Status

Höhe 363.0 km
Geschwindigkeit 7.70 km/s
Subsatellitenpunkt 58.98°N, 98.48°W
Startdatum 1. Aug. 2022
Alter 3.8 years
Typ other

Technische Details

Klassifizierung Payload
Masse 400.00 kg
Trockenmasse 400.00 kg
Gesamtmasse 547.00 kg
Länge 3.00 m
Durchmesser 1.30 m
Spannweite 3.00 m
Form Cyl + 2 Pan
Hersteller NPOLO
Bus-Typ Karat-200
Phasenstatus In Orbit
Besitzer/Staat TSVS/RU

Most Searched